[[{"header":{"parameterUnit":"m.s-1","parameterCategory":1,"la1":30.2991,"la2":30.254,"lo1":-89.0895,"lo2":-89.0444,"dy":0.0017,"dx":0.0017,"nx":28,"ny":28,"refTime":"2025-09-13T03:00:00:Z","depth":0,"parameterNumber":2,"parameterNumberName":"U-component_of_WINDS"},"data":[0,0,0,0,0,0,0,0,0,0,0,0,0,0,0,0,0,0,0,0,0,0,0,0,0,0,0,0,0,0,0,0,0,0,0,0,0,0,0,0,0,0,0,0,0,0,0,0,0,0,0,0,0,0,0,0,0,0,2.6558,2.6559,0,2.6666,2.6667,2.6669,2.6653,2.6652,2.665,2.6648,2.6757,2.6762,2.6766,0,0,0,0,0,0,0,0,0,0,0,0,0,2.6338,2.6342,2.6558,2.6559,2.6561,2.6666,2.6667,2.6669,2.6654,2.6652,2.6649,2.6647,2.6756,2.6761,2.6767,0,0,0,0,0,0,0,0,0,0,0,0,0,2.6438,2.6343,2.6558,2.6566,2.6568,2.6666,2.6667,2.6669,2.6654,2.6652,2.6649,2.6646,2.6754,2.6761,2.6767,2.6864,0,0,2.6788,2.6791,0,0,0,0,0,0,0,0,2.6433,2.6446,2.6563,2.6566,2.6568,2.6644,2.663,2.6734,2.6655,2.6621,2.6648,2.6645,2.6722,2.6731,2.6757,2.6869,2.6873,2.6789,2.6793,2.6796,2.6798,0,0,0,0,0,0,0,2.6426,2.6442,2.6601,2.6565,2.6568,2.6564,2.6575,2.6649,2.6685,2.6624,2.6623,2.6636,2.6722,2.675,2.6759,2.6875,2.6789,2.6795,2.6799,2.6802,2.707,2.7073,0,0,0,0,0,0,2.6417,2.6436,2.6597,2.6604,2.6492,2.657,2.6583,2.6622,2.6684,2.6691,2.6638,2.6635,2.674,2.6751,2.6763,2.6879,2.6796,2.6802,2.6806,2.7067,2.7071,2.7074,0,0,0,0,0,0,2.6412,2.6431,2.6593,2.652,2.654,2.6577,2.6621,2.6625,2.6654,2.6695,2.6701,2.6661,2.6738,2.6754,2.6839,2.6883,2.6806,2.6812,2.7064,2.7068,2.7073,2.7112,0,0,0,0,0,0,2.6406,2.643,2.6467,2.6521,2.6544,2.6667,2.6624,2.663,2.6666,2.6662,2.6718,2.6724,2.6737,2.6828,2.6845,2.6891,2.6817,2.706,2.7066,2.7071,2.7107,2.7117,2.7126,0,0,0,0,0,2.6398,2.6473,2.6469,2.6488,2.6591,2.667,2.6683,2.6697,2.6669,2.6707,2.6733,2.6723,2.6876,2.6837,2.6856,2.6904,2.7057,2.7064,2.7071,2.7102,2.7115,2.7126,0,0,0,0,0,0,2.6423,2.648,2.6476,2.6571,2.6616,2.6667,2.6714,2.671,2.6762,2.6757,2.6772,2.6784,2.687,2.6896,2.6853,2.7,2.6963,2.6973,2.698,2.6993,2.7002,2.6993,2.6823,0,0,0,0,0,2.6439,2.6499,2.6546,2.6625,2.6648,2.6677,2.6712,2.6719,2.6765,2.6784,2.6817,2.6862,2.692,2.6958,2.7014,2.7111,2.7122,2.7154,2.7163,2.7171,2.718,2.7232,2.7246,2.7097,2.7097,2.7096,0,0,2.6474,2.6513,2.6549,2.6631,2.6666,2.6727,2.6693,2.6759,2.6803,2.6794,2.6876,2.6902,2.6953,2.7045,2.7087,2.7069,2.7224,2.718,2.7185,2.719,2.7241,2.7255,2.7267,2.7101,2.71,2.71,0,0,2.6568,2.6604,2.6673,2.671,2.6764,2.6783,2.68,2.6853,2.6869,2.6952,2.6946,2.7,2.71,2.7137,2.7168,2.7277,2.7269,2.7295,2.7345,2.7396,2.7407,2.7418,2.7456,2.7469,2.7304,2.7304,2.7304,0,2.6604,2.6695,2.671,2.6776,2.6812,2.6807,2.6877,2.6912,2.6981,2.7006,2.6985,2.7111,2.7145,2.7244,2.7271,2.7297,2.7316,2.7288,2.7405,2.7415,2.7425,2.7461,2.7476,2.7307,2.7306,2.7306,2.7306,0,2.6736,2.6799,2.6849,2.6917,2.6959,2.7027,2.7051,2.7092,2.7096,2.7117,2.7201,2.7243,2.7306,2.7331,2.7335,2.7431,2.7418,2.7401,2.7363,2.7442,2.7476,2.749,2.7311,2.731,2.7309,2.7308,0,0,2.6846,2.6922,2.694,2.6971,2.7031,2.708,2.7148,2.7211,2.7244,2.7293,2.7349,2.7435,2.7419,2.7456,2.7464,2.7509,2.7591,2.7487,2.7488,2.7503,2.7699,2.771,2.7726,2.7587,2.759,2.7592,2.7694,0,2.6945,2.7065,2.7081,2.7187,2.7245,2.7242,2.7301,2.7344,2.7366,2.7419,2.7443,2.7503,2.7479,2.75,2.7545,2.7572,2.763,2.7565,2.7639,2.7641,2.7624,2.7744,2.7756,2.785,2.7707,2.771,2.7711,0,2.7075,2.7128,2.724,2.7292,2.7317,2.737,2.7428,2.7479,2.7528,2.7541,2.7581,2.7584,2.7654,2.7615,2.7711,2.7666,2.7697,2.7715,2.7719,2.7725,2.768,2.7751,2.788,2.7894,2.7733,2.7731,2.7729,0,2.7143,2.7242,2.7322,2.7348,2.7411,2.7448,2.7476,2.7522,2.7559,2.761,2.7634,2.7694,2.7725,2.7771,2.779,2.776,2.7884,2.7847,2.7896,2.7896,2.7921,2.7919,2.8055,2.7944,2.7944,2.7944,2.7943,0,2.725,2.7318,2.7353,2.7402,2.7478,2.7496,2.7571,2.7597,2.7638,2.7692,2.7693,2.7743,2.7766,2.782,2.7835,2.7911,2.7926,2.7938,2.7941,2.7937,2.7935,2.7956,2.795,2.7947,2.7946,2.7946,2.7945,0,2.7338,2.7364,2.745,2.7503,2.7518,2.7572,2.7617,2.7664,2.7686,2.7754,2.7771,2.7805,2.7869,2.7892,2.7969,2.798,2.8068,2.8066,2.8051,2.8052,2.8099,2.8094,2.8253,2.8274,2.815,2.8151,2.8152,0,2.7403,2.7456,2.7515,2.7551,2.758,2.7639,2.7676,2.7696,2.7735,2.7795,2.7835,2.7898,2.7949,2.8051,2.8082,2.8141,2.814,2.8192,2.8149,2.8143,2.8139,2.8135,2.814,2.8199,2.82,2.8201,2.8202,0,2.7517,2.7527,2.7582,2.7642,2.7687,2.7735,2.7781,2.7811,2.7837,2.7881,2.7946,2.7986,2.8065,2.8128,2.8188,2.8217,2.8214,2.8216,2.823,2.8226,2.8215,2.822,2.8071,2.8212,2.8211,2.821,2.821,2.8209,2.7595,2.7641,2.769,2.7751,2.7788,2.7831,2.7878,2.7907,2.7961,2.8027,2.8036,2.8105,2.8153,2.8234,2.8265,2.8319,2.8305,2.8326,2.8331,2.8336,2.8339,2.8207,2.8331,2.833,2.833,2.833,2.833,0,2.7707,2.7739,2.7795,2.786,2.7908,2.7902,2.7953,2.7993,2.8055,2.81,2.815,2.8225,2.8286,2.8323,2.8384,2.842,2.842,2.8435,2.8432,2.8438,2.8348,2.8329,2.8434,2.8434,2.8434,2.8434,2.8434,2.8434,2.7771,2.7849,2.7866,2.7962,2.7993,2.8061,2.8091,2.8131,2.8166,2.825,2.83,2.8324,2.8366,2.843,2.8485,2.8495,2.8517,2.8533,2.854,2.8455,2.8445,2.8434,2.8416,2.8538,2.8538,2.8626,2.8626,2.8627]},{"header":{"parameterUnit":"m.s-1","parameterCategory":1,"la1":30.2991,"la2":30.254,"lo1":-89.0895,"lo2":-89.0444,"dy":0.0017,"dx":0.0017,"nx":28,"ny":28,"refTime":"2025-09-13T03:00:00:Z","depth":0,"parameterNumber":3,"parameterNumberName":"V-component_of_WINDS"},"data":[0,0,0,0,0,0,0,0,0,0,0,0,0,0,0,0,0,0,0,0,0,0,0,0,0,0,0,0,0,0,0,0,0,0,0,0,0,0,0,0,0,0,0,0,0,0,0,0,0,0,0,0,0,0,0,0,0,0,2.1559,2.156,0,2.158,2.1581,2.1581,2.1556,2.1555,2.1554,2.1553,2.1571,2.1573,2.1574,0,0,0,0,0,0,0,0,0,0,0,0,0,2.1495,2.1496,2.1559,2.156,2.156,2.158,2.1581,2.1581,2.1556,2.1555,2.1553,2.1552,2.1571,2.1573,2.1574,0,0,0,0,0,0,0,0,0,0,0,0,0,2.152,2.1496,2.1559,2.155,2.1549,2.158,2.1581,2.1581,2.1556,2.1555,2.1553,2.1552,2.157,2.1572,2.1574,2.1615,0,0,2.1581,2.1582,0,0,0,0,0,0,0,0,2.1519,2.1522,2.1551,2.1551,2.155,2.1564,2.1565,2.1592,2.1556,2.1553,2.1553,2.1551,2.157,2.1572,2.1579,2.1616,2.1616,2.1581,2.1582,2.1583,2.1583,0,0,0,0,0,0,0,2.1517,2.1521,2.1568,2.1552,2.1551,2.1544,2.1546,2.157,2.1569,2.1553,2.1552,2.1555,2.1569,2.1577,2.1579,2.1617,2.1581,2.1583,2.1584,2.1585,2.1687,2.1689,0,0,0,0,0,0,2.1517,2.152,2.1567,2.1568,2.1531,2.1546,2.1548,2.1561,2.1569,2.1569,2.1556,2.1553,2.1574,2.1577,2.158,2.1627,2.1583,2.1585,2.1586,2.1686,2.1688,2.1689,0,0,0,0,0,0,2.1515,2.1521,2.1566,2.1544,2.1549,2.1549,2.1563,2.1562,2.157,2.1571,2.157,2.1564,2.1573,2.1577,2.1606,2.1627,2.1586,2.1588,2.1684,2.1686,2.1688,2.1722,0,0,0,0,0,0,2.1514,2.1521,2.1537,2.1544,2.155,2.1594,2.1564,2.1563,2.1573,2.1571,2.1578,2.1578,2.1572,2.1603,2.1608,2.1629,2.1589,2.1682,2.1685,2.1688,2.1719,2.1726,2.1731,0,0,0,0,0,2.1511,2.1545,2.1538,2.1544,2.157,2.1595,2.1598,2.1592,2.1575,2.1591,2.1591,2.1578,2.1624,2.1607,2.1612,2.1634,2.1681,2.1684,2.1687,2.1717,2.1724,2.1731,0,0,0,0,0,0,2.1539,2.1546,2.1538,2.1575,2.1585,2.1591,2.161,2.16,2.1614,2.161,2.1601,2.1603,2.1634,2.1637,2.1617,2.1673,2.165,2.1654,2.167,2.1677,2.1683,2.1681,2.1591,0,0,0,0,0,2.155,2.157,2.1574,2.1607,2.1612,2.161,2.1621,2.1615,2.1624,2.1628,2.163,2.1639,2.1656,2.1667,2.1682,2.172,2.1721,2.1737,2.1743,2.1748,2.1752,2.1771,2.1779,2.17,2.17,2.17,0,0,2.1571,2.1578,2.1591,2.1612,2.1619,2.1639,2.1614,2.1636,2.1651,2.1631,2.1659,2.1662,2.167,2.1704,2.1719,2.1707,2.1774,2.1752,2.1756,2.1757,2.1776,2.1783,2.179,2.1703,2.1702,2.1702,0,0,2.1621,2.1628,2.1656,2.1663,2.1674,2.1673,2.168,2.1687,2.1688,2.1717,2.1702,2.1719,2.1748,2.1755,2.1762,2.1814,2.1802,2.182,2.1849,2.1868,2.1875,2.188,2.1898,2.1905,2.1824,2.1824,2.1824,0,2.1646,2.1677,2.1671,2.1695,2.1704,2.1688,2.1716,2.1723,2.1738,2.1744,2.1731,2.1767,2.1772,2.1807,2.182,2.1827,2.1833,2.1818,2.1874,2.188,2.1885,2.1902,2.1909,2.1826,2.1825,2.1825,2.1825,0,2.1707,2.1729,2.175,2.1766,2.1778,2.1803,2.18,2.1813,2.1806,2.1806,2.1835,2.184,2.1856,2.1864,2.1857,2.1898,2.189,2.1876,2.1852,2.1894,2.191,2.1917,2.1829,2.1828,2.1827,2.1827,0,0,2.1775,2.1788,2.1795,2.1802,2.1813,2.1829,2.1853,2.187,2.1881,2.1891,2.1911,2.1936,2.1923,2.1931,2.1925,2.1942,2.1983,2.1926,2.1926,2.1936,2.2027,2.2038,2.2045,2.1975,2.1976,2.1977,2.2026,0,2.1824,2.1868,2.1863,2.1904,2.1923,2.1908,2.1929,2.1938,2.1938,2.1954,2.1954,2.1971,2.1953,2.1958,2.1974,2.1975,2.2001,2.1971,2.1992,2.1993,2.199,2.2054,2.2065,2.2111,2.2033,2.2034,2.2034,0,2.1888,2.1902,2.1945,2.1953,2.1961,2.198,2.1995,2.201,2.2019,2.2018,2.2028,2.2019,2.2042,2.2019,2.205,2.203,2.2038,2.204,2.2041,2.2042,2.2016,2.2056,2.2125,2.2132,2.2044,2.2043,2.2043,0,2.1932,2.1962,2.1991,2.1998,2.2008,2.2022,2.2026,2.2034,2.2044,2.2057,2.2063,2.2078,2.2086,2.2097,2.2092,2.2075,2.2124,2.21,2.2123,2.2123,2.2134,2.2133,2.2205,2.214,2.214,2.214,2.214,0,2.1988,2.2015,2.2012,2.203,2.2059,2.2053,2.2081,2.2084,2.2091,2.2109,2.2096,2.2113,2.2105,2.2121,2.2117,2.2144,2.2148,2.2147,2.2145,2.2148,2.2148,2.2152,2.2149,2.2142,2.2141,2.2141,2.2141,0,2.2042,2.2041,2.2072,2.2079,2.2082,2.2103,2.2109,2.2125,2.2125,2.2147,2.2152,2.2151,2.2169,2.2165,2.2185,2.2182,2.2215,2.221,2.2213,2.2211,2.2234,2.2232,2.2311,2.2321,2.2251,2.2251,2.2252,0,2.2077,2.2098,2.2107,2.2119,2.2125,2.2143,2.2154,2.2148,2.2159,2.2171,2.2186,2.2203,2.2217,2.2246,2.2246,2.2261,2.2256,2.2283,2.2258,2.2259,2.2255,2.2254,2.2256,2.2287,2.2288,2.2289,2.2289,0,2.214,2.2138,2.2155,2.2171,2.2184,2.2196,2.2207,2.2217,2.2212,2.2226,2.2244,2.2255,2.2275,2.2292,2.2306,2.2309,2.2298,2.2297,2.2303,2.2305,2.2306,2.2305,2.2225,2.2295,2.2295,2.2294,2.2294,2.2294,2.2185,2.2202,2.2212,2.223,2.2238,2.2249,2.2265,2.2267,2.2283,2.2299,2.2295,2.2316,2.2324,2.2341,2.2347,2.2362,2.2352,2.2361,2.2363,2.2365,2.2368,2.2304,2.2365,2.2365,2.2364,2.2364,2.2364,0,2.2246,2.2252,2.2269,2.2285,2.23,2.2289,2.2301,2.2313,2.2332,2.2341,2.2355,2.2376,2.2392,2.2394,2.2409,2.2422,2.2417,2.2426,2.2424,2.2425,2.2376,2.237,2.2429,2.2429,2.2429,2.2429,2.2429,2.2429,2.228,2.2309,2.2309,2.2341,2.2346,2.2367,2.2374,2.2384,2.2391,2.2415,2.2429,2.2431,2.2437,2.2452,2.2466,2.2466,2.2472,2.2483,2.2481,2.2435,2.2429,2.2423,2.2416,2.2484,2.2485,2.2528,2.2529,2.2529]}]]